| time (UTC) | temp C | wind direction | speed KPH | gust KPH | rain 1hr cm | rain 24hr cm | rain mn cm | humidity % | barometer mb |
| 20260831005946 | 31 | 146 | 9.7 | 12.9 | 0.00 | 0.00 | 0.00 | 23 | 1011.8 |
| 20260831005546 | 31 | 135 | 11.3 | 19.3 | 0.00 | 0.00 | 0.00 | 23 | 1011.9 |
| 20260831005144 | 31 | 150 | 11.3 | 17.7 | 0.00 | 0.00 | 0.00 | 22 | 1011.9 |
| 20260831004744 | 32 | 144 | 4.8 | 11.3 | 0.00 | 0.00 | 0.00 | 22 | 1011.9 |
| 20260831004341 | 32 | 135 | 8.0 | 14.5 | 0.00 | 0.00 | 0.00 | 22 | 1011.8 |
| 20260831003939 | 32 | 144 | 14.5 | 14.5 | 0.00 | 0.00 | 0.00 | 22 | 1011.9 |
| 20260831003137 | 32 | 150 | 11.3 | 11.3 | 0.00 | 0.00 | 0.00 | 21 | 1011.8 |
| 20260831002736 | 32 | 164 | 6.4 | 14.5 | 0.00 | 0.00 | 0.00 | 21 | 1011.8 |
| 20260831002335 | 32 | 144 | 9.7 | 16.1 | 0.00 | 0.00 | 0.00 | 20 | 1011.7 |
| 20260831001935 | 33 | 141 | 8.0 | 11.3 | 0.00 | 0.00 | 0.00 | 20 | 1011.8 |
| 20260831001532 | 33 | 180 | 12.9 | 14.5 | 0.00 | 0.00 | 0.00 | 20 | 1011.8 |
| 20260831001131 | 33 | 177 | 9.7 | 9.7 | 0.00 | 0.00 | 0.00 | 20 | 1011.7 |
| 20260831000730 | 33 | 171 | 6.4 | 11.3 | 0.00 | 0.00 | 0.00 | 20 | 1011.8 |
| 20260831000329 | 33 | 182 | 6.4 | 11.3 | 0.00 | 0.00 | 0.00 | 20 | 1011.8 |
| 20260830235927 | 33 | 155 | 9.7 | 14.5 | 0.00 | 0.00 | 0.00 | 20 | 1011.8 |
| 20260830235529 | 33 | 177 | 6.4 | 12.9 | 0.00 | 0.00 | 0.00 | 20 | 1011.8 |
| 20260830234322 | 35 | 165 | 4.8 | 12.9 | 0.00 | 0.00 | 0.00 | 19 | 1011.8 |
| 20260830233921 | 36 | 155 | 9.7 | 14.5 | 0.00 | 0.00 | 0.00 | 19 | 1011.8 |
| 20260830233119 | 36 | 162 | 9.7 | 12.9 | 0.00 | 0.00 | 0.00 | 20 | 1011.8 |
| 20260830232716 | 37 | 195 | 6.4 | 14.5 | 0.00 | 0.00 | 0.00 | 20 | 1012.0 |
| 20260830232315 | 37 | 184 | 11.3 | 12.9 | 0.00 | 0.00 | 0.00 | 20 | 1011.9 |
| 20260830231914 | 37 | 186 | 11.3 | 16.1 | 0.00 | 0.00 | 0.00 | 20 | 1011.9 |
| 20260830230712 | 37 | 144 | 4.8 | 11.3 | 0.00 | 0.00 | 0.00 | 20 | 1012.1 |
| 20260830230309 | 37 | 180 | 8.0 | 11.3 | 0.00 | 0.00 | 0.00 | 20 | 1012.1 |
| 20260830225907 | 37 | 193 | 6.4 | 9.7 | 0.00 | 0.00 | 0.00 | 20 | 1012.0 |
| 20260830225105 | 37 | 171 | 3.2 | 12.9 | 0.00 | 0.00 | 0.00 | 20 | 1012.3 |
| 20260830223901 | 36 | 148 | 6.4 | 20.9 | 0.00 | 0.00 | 0.00 | 20 | 1012.4 |
| 20260830223500 | 35 | 193 | 12.9 | 27.4 | 0.00 | 0.00 | 0.00 | 20 | 1012.5 |
| 20260830223059 | 36 | 150 | 14.5 | 25.7 | 0.00 | 0.00 | 0.00 | 20 | 1012.5 |
| 20260830222658 | 36 | 166 | 11.3 | 20.9 | 0.00 | 0.00 | 0.00 | 20 | 1012.5 |
| 20260830221855 | 35 | 141 | 11.3 | 17.7 | 0.00 | 0.00 | 0.00 | 20 | 1012.7 |
| 20260830221453 | 35 | 182 | 11.3 | 19.3 | 0.00 | 0.00 | 0.00 | 20 | 1012.7 |
| 20260830221052 | 35 | 123 | 14.5 | 17.7 | 0.00 | 0.00 | 0.00 | 20 | 1012.8 |
| 20260830220651 | 35 | 162 | 8.0 | 24.1 | 0.00 | 0.00 | 0.00 | 20 | 1012.8 |
| 20260830220251 | 36 | 177 | 6.4 | 14.5 | 0.00 | 0.00 | 0.00 | 20 | 1012.9 |
| 20260830215849 | 35 | 186 | 12.9 | 19.3 | 0.00 | 0.00 | 0.00 | 20 | 1012.9 |
| 20260830215447 | 35 | 128 | 14.5 | 22.5 | 0.00 | 0.00 | 0.00 | 20 | 1013.0 |
| 20260830215050 | 36 | 189 | 11.3 | 17.7 | 0.00 | 0.00 | 0.00 | 20 | 1013.0 |
| 20260830214646 | 34 | 130 | 12.9 | 0.0 | 0.00 | 0.00 | 0.00 | 20 | 101.3 |
| 20260830214644 | 36 | 130 | 12.9 | 17.7 | 0.00 | 0.00 | 0.00 | 20 | 1013.1 |
| 20260830214243 | 37 | 150 | 6.4 | 16.1 | 0.00 | 0.00 | 0.00 | 20 | 1013.1 |
| 20260830213842 | 37 | 190 | 11.3 | 17.7 | 0.00 | 0.00 | 0.00 | 20 | 1013.2 |
| 20260830213040 | 38 | 185 | 16.1 | 33.8 | 0.00 | 0.00 | 0.00 | 19 | 1013.2 |
| 20260830211434 | 38 | 182 | 17.7 | 17.7 | 0.00 | 0.00 | 0.00 | 20 | 1013.5 |
| 20260830211033 | 38 | 180 | 9.7 | 12.9 | 0.00 | 0.00 | 0.00 | 20 | 1013.4 |
| 20260830210632 | 38 | 171 | 8.0 | 19.3 | 0.00 | 0.00 | 0.00 | 20 | 1013.4 |
| 20260830210230 | 38 | 180 | 11.3 | 12.9 | 0.00 | 0.00 | 0.00 | 20 | 1013.4 |
| 20260830205831 | 38 | 182 | 6.4 | 12.9 | 0.00 | 0.00 | 0.00 | 20 | 1013.5 |
| 20260830205829 | 38 | 182 | 6.4 | 12.9 | 0.00 | 0.00 | 0.00 | 20 | 1013.5 |
| 20260830205428 | 38 | 182 | 11.3 | 14.5 | 0.00 | 0.00 | 0.00 | 20 | 1013.5 |
| 20260830205027 | 37 | 180 | 9.7 | 17.7 | 0.00 | 0.00 | 0.00 | 20 | 1013.5 |
| 20260830204626 | 38 | 175 | 6.4 | 9.7 | 0.00 | 0.00 | 0.00 | 20 | 1013.5 |
| 20260830203421 | 37 | 186 | 9.7 | 25.7 | 0.00 | 0.00 | 0.00 | 20 | 1013.7 |
| 20260830203020 | 37 | 182 | 9.7 | 14.5 | 0.00 | 0.00 | 0.00 | 21 | 1013.7 |
| 20260830202619 | 37 | 166 | 6.4 | 12.9 | 0.00 | 0.00 | 0.00 | 21 | 1013.7 |
| 20260830202218 | 37 | 160 | 4.8 | 16.1 | 0.00 | 0.00 | 0.00 | 21 | 1013.7 |
| 20260830201416 | 38 | 216 | 3.2 | 11.3 | 0.00 | 0.00 | 0.00 | 21 | 1013.8 |
| 20260830201013 | 37 | 164 | 4.8 | 6.4 | 0.00 | 0.00 | 0.00 | 21 | 1013.7 |
| 20260830200211 | 37 | 135 | 9.7 | 14.5 | 0.00 | 0.00 | 0.00 | 21 | 1013.7 |
| 20260830195810 | 37 | 135 | 12.9 | 12.9 | 0.00 | 0.00 | 0.00 | 22 | 1013.7 |
| 20260830195409 | 38 | 126 | 4.8 | 14.5 | 0.00 | 0.00 | 0.00 | 22 | 1013.7 |
| 20260830195009 | 38 | 174 | 8.0 | 14.5 | 0.00 | 0.00 | 0.00 | 22 | 1013.9 |
| 20260830194205 | 38 | 184 | 11.3 | 12.9 | 0.00 | 0.00 | 0.00 | 22 | 1013.9 |
| 20260830193001 | 36 | 155 | 3.2 | 4.8 | 0.00 | 0.00 | 0.00 | 23 | 1014.0 |
| 20260830192559 | 35 | 135 | 4.8 | 16.1 | 0.00 | 0.00 | 0.00 | 23 | 1014.0 |
| 20260830192158 | 35 | 162 | 6.4 | 16.1 | 0.00 | 0.00 | 0.00 | 23 | 1014.0 |
| 20260830191758 | 34 | 256 | 3.2 | 19.3 | 0.00 | 0.00 | 0.00 | 23 | 1014.1 |
| 20260830191357 | 33 | 117 | 9.7 | 25.7 | 0.00 | 0.00 | 0.00 | 23 | 1.0 |
| 20260830190955 | 34 | 135 | 4.8 | 19.3 | 0.00 | 0.00 | 0.00 | 23 | 1014.1 |
| 20260830190553 | 33 | 135 | 11.3 | 24.1 | 0.00 | 0.00 | 0.00 | 23 | 1014.1 |
| 20260830185750 | 33 | 90 | 14.5 | 16.1 | 0.00 | 0.00 | 0.00 | 23 | 1014.1 |
| 20260830185350 | 35 | 110 | 8.0 | 14.5 | 0.00 | 0.00 | 0.00 | 24 | 1014.2 |
| 20260830184948 | 36 | 114 | 9.7 | 12.9 | 0.00 | 0.00 | 0.00 | 24 | 1014.3 |
| 20260830184547 | 37 | 279 | 3.2 | 11.3 | 0.00 | 0.00 | 0.00 | 24 | 1014.1 |
| 20260830184145 | 36 | 180 | 9.7 | 14.5 | 0.00 | 0.00 | 0.00 | 25 | 1014.2 |
| 20260830182943 | 35 | 150 | 9.7 | 14.5 | 0.00 | 0.00 | 0.00 | 25 | 1014.2 |
| 20260830180534 | 33 | 102 | 8.0 | 9.7 | 0.00 | 0.00 | 0.00 | 27 | 1014.3 |
| 20260830180133 | 33 | 184 | 4.8 | 12.9 | 0.00 | 0.00 | 0.00 | 27 | 1014.3 |
| 20260830174527 | 32 | 81 | 6.4 | 11.3 | 0.00 | 0.00 | 0.00 | 27 | 1014.2 |
| 20260830174128 | 32 | 60 | 4.8 | 9.7 | 0.00 | 0.00 | 0.00 | 28 | 1014.0 |
| 20260830172923 | 34 | 145 | 1.6 | 8.0 | 0.00 | 0.00 | 0.00 | 29 | 1014.2 |
| 20260830172522 | 33 | 182 | 3.2 | 9.7 | 0.00 | 0.00 | 0.00 | 30 | 1014.2 |
| 20260830172120 | 32 | 186 | 6.4 | 12.9 | 0.00 | 0.00 | 0.00 | 30 | 1014.3 |
| 20260830171317 | 32 | 80 | 3.2 | 8.0 | 0.00 | 0.00 | 0.00 | 31 | 1014.2 |
| 20260830170916 | 32 | 22 | 1.6 | 3.2 | 0.00 | 0.00 | 0.00 | 31 | 1014.3 |
| 20260830170113 | 30 | 74 | 1.6 | 6.4 | 0.00 | 0.00 | 0.00 | 31 | 1014.2 |
| 20260830165712 | 30 | 87 | 6.4 | 6.4 | 0.00 | 0.00 | 0.00 | 31 | 1014.2 |
| 20260830165310 | 31 | 292 | 1.6 | 4.8 | 0.00 | 0.00 | 0.00 | 32 | 1014.2 |
| 20260830164909 | 30 | 157 | 1.6 | 4.8 | 0.00 | 0.00 | 0.00 | 32 | 1014.2 |
| 20260830164510 | 30 | 301 | 1.6 | 4.8 | 0.00 | 0.00 | 0.00 | 32 | 1014.2 |
| 20260830163705 | 31 | 105 | 4.8 | 4.8 | 0.00 | 0.00 | 0.00 | 33 | 1014.2 |
| 20260830163304 | 31 | 159 | 0.0 | 4.8 | 0.00 | 0.00 | 0.00 | 33 | 1014.1 |
| 20260830162903 | 30 | 272 | 3.2 | 3.2 | 0.00 | 0.00 | 0.00 | 34 | 1014.3 |
| 20260830162102 | -17 | 53 | 968.8 | 0.0 | 0.00 | 0.00 | 0.00 | ||
| 20260830161659 | 30 | 234 | 1.6 | 3.2 | 0.00 | 0.00 | 0.00 | 36 | 1014.4 |
| 20260830161257 | 29 | 135 | 3.2 | 9.7 | 0.00 | 0.00 | 0.00 | 36 | 1014.3 |
| 20260830160858 | 29 | 90 | 6.4 | 9.7 | 0.00 | 0.00 | 0.00 | 37 | 1014.3 |
| 20260830160054 | 29 | 242 | 1.6 | 3.2 | 0.00 | 0.00 | 0.00 | 38 | 1014.3 |
| 20260830155655 | 29 | 297 | 1.6 | 1.6 | 0.00 | 0.00 | 0.00 | 39 | 1014.3 |
| 20260830155252 | 27 | 218 | 0.0 | 4.8 | 0.00 | 0.00 | 0.00 | 39 | 1014.4 |
| 20260830154850 | 26 | 135 | 6.4 | 8.0 | 0.00 | 0.00 | 0.00 | 40 | 1014.5 |
| 20260830154450 | 26 | 139 | 4.8 | 6.4 | 0.00 | 0.00 | 0.00 | 41 | 1014.4 |
| 20260830154047 | 26 | 135 | 6.4 | 8.0 | 0.00 | 0.00 | 0.00 | 41 | 1014.4 |
| 20260830153246 | 26 | 137 | 1.6 | 11.3 | 0.00 | 0.00 | 0.00 | 41 | 1014.4 |
| 20260830152844 | 26 | 99 | 8.0 | 9.7 | 0.00 | 0.00 | 0.00 | 42 | 1014.5 |
| 20260830152442 | 25 | 114 | 6.4 | 6.4 | 0.00 | 0.00 | 0.00 | 43 | 1014.4 |
| 20260830152041 | 25 | 139 | 4.8 | 8.0 | 0.00 | 0.00 | 0.00 | 42 | 1014.4 |
| 20260830151640 | 25 | 114 | 3.2 | 4.8 | 0.00 | 0.00 | 0.00 | 43 | 1014.4 |
| 20260830151239 | 24 | 105 | 1.6 | 4.8 | 0.00 | 0.00 | 0.00 | 43 | 1014.5 |
| 20260830150837 | 24 | 90 | 3.2 | 4.8 | 0.00 | 0.00 | 0.00 | 44 | 1014.5 |
| 20260830150436 | 24 | 137 | 3.2 | 4.8 | 0.00 | 0.00 | 0.00 | 44 | 1014.6 |
| 20260830145634 | 23 | 50 | 0.0 | 1.6 | 0.00 | 0.00 | 0.00 | 45 | 1014.5 |
| 20260830145232 | 23 | 78 | 0.0 | 1.6 | 0.00 | 0.00 | 0.00 | 45 | 1014.6 |
| 20260830144831 | 23 | 135 | 0.0 | 1.6 | 0.00 | 0.00 | 0.00 | 46 | 1014.5 |
| 20260830144430 | 23 | 137 | 1.6 | 1.6 | 0.00 | 0.00 | 0.00 | 46 | 1014.5 |
| 20260830144028 | 23 | 180 | 0.0 | 0.0 | 0.00 | 0.00 | 0.00 | 46 | 1014.4 |
| 20260830143627 | 22 | 87 | 0.0 | 0.0 | 0.00 | 0.00 | 0.00 | 47 | 1014.3 |
| 20260830143227 | 22 | 312 | 0.0 | 1.6 | 0.00 | 0.00 | 0.00 | 47 | 1014.3 |
| 20260830142423 | 21 | 299 | 1.6 | 1.6 | 0.00 | 0.00 | 0.00 | 47 | 1014.3 |
| 20260830142022 | 21 | 324 | 0.0 | 0.0 | 0.00 | 0.00 | 0.00 | 47 | 1014.3 |
| 20260830141621 | 20 | 303 | 0.0 | 0.0 | 0.00 | 0.00 | 0.00 | 47 | 1014.3 |
| 20260830141219 | 20 | 333 | 0.0 | 1.6 | 0.00 | 0.00 | 0.00 | 47 | 1014.3 |
| 20260830140417 | 19 | 137 | 0.0 | 0.0 | 0.00 | 0.00 | 0.00 | 48 | 1014.1 |
| 20260830140016 | 19 | 279 | 0.0 | 0.0 | 0.00 | 0.00 | 0.00 | 48 | 1014.1 |
| 20260830135616 | -17 | 294 | 0.0 | 0.0 | 0.00 | 0.00 | 0.00 | 1014.1 | |
| 20260830134811 | 19 | 301 | 0.0 | 1.6 | 0.00 | 0.00 | 0.00 | 48 | 1013.9 |
| 20260830134012 | 19 | 288 | 0.0 | 0.0 | 0.00 | 0.00 | 0.00 | 47 | 1013.9 |
| 20260830133608 | 19 | 312 | 0.0 | 0.0 | 0.00 | 0.00 | 0.00 | 47 | 1013.8 |
| 20260830132806 | 19 | 274 | 0.0 | 0.0 | 0.00 | 0.00 | 0.00 | 47 | 1013.7 |
| 20260830132403 | 19 | 279 | 0.0 | 0.0 | 0.00 | 0.00 | 0.00 | 47 | 1013.6 |
| 20260830131601 | 19 | 292 | 0.0 | 0.0 | 0.00 | 0.00 | 0.00 | 47 | 1013.6 |
| 20260830131201 | 19 | 297 | 0.0 | 0.0 | 0.00 | 0.00 | 0.00 | 47 | 1013.4 |
| 20260830130802 | 19 | 306 | 0.0 | 0.0 | 0.00 | 0.00 | 0.00 | 47 | 1013.5 |
| 20260830125956 | 19 | 270 | 0.0 | 0.0 | 0.00 | 0.00 | 0.00 | 47 | 1013.4 |
| 20260830125154 | 19 | 234 | 0.0 | 0.0 | 0.00 | 0.00 | 0.00 | 47 | 1013.4 |
| 20260830124753 | 19 | 298 | 0.0 | 1.6 | 0.00 | 0.00 | 0.00 | 47 | 1013.3 |
| 20260830124352 | 19 | 279 | 0.0 | 0.0 | 0.00 | 0.00 | 0.00 | 46 | |
| 20260830123950 | 19 | 270 | 0.0 | 0.0 | 0.00 | 0.00 | 0.00 | 46 | 1013.3 |
| 20260830123548 | 19 | 308 | 0.0 | 0.0 | 0.00 | 0.00 | 0.00 | 46 | 1013.3 |
| 20260830123147 | 19 | 303 | 0.0 | 0.0 | 0.00 | 0.00 | 0.00 | 46 | 1013.2 |
| 20260830121944 | 19 | 288 | 0.0 | 0.0 | 0.00 | 0.00 | 0.00 | 46 | 1013.3 |
| 20260830121547 | 19 | 299 | 0.0 | 0.0 | 0.00 | 0.00 | 0.00 | 46 | 1013.2 |
| 20260830121140 | 19 | 306 | 0.0 | 0.0 | 0.00 | 0.00 | 0.00 | 46 | 1013.4 |
| 20260830120739 | 19 | 285 | 0.0 | 0.0 | 0.00 | 0.00 | 0.00 | 46 | 1013.3 |
| 20260830120338 | 19 | 274 | 0.0 | 0.0 | 0.00 | 0.00 | 0.00 | 46 | 1013.3 |
| 20260830115937 | 19 | 288 | 0.0 | 0.0 | 0.00 | 0.00 | 0.00 | 46 | 1013.3 |
| 20260830115536 | 19 | 279 | 0.0 | 0.0 | 0.00 | 0.00 | 0.00 | 46 | 1013.3 |
| 20260830115135 | 19 | 288 | 0.0 | 0.0 | 0.00 | 0.00 | 0.00 | 46 | 1013.3 |
| 20260830114733 | 19 | 303 | 0.0 | 0.0 | 0.00 | 0.00 | 0.00 | 45 | 1013.3 |
| 20260830114332 | 20 | 285 | 0.0 | 0.0 | 0.00 | 0.00 | 0.00 | 45 | 1013.1 |
| 20260830113931 | 20 | 263 | 0.0 | 0.0 | 0.00 | 0.00 | 0.00 | 45 | 1013.2 |
| 20260830112728 | 20 | 270 | 0.0 | 1.6 | 0.00 | 0.00 | 0.00 | 45 | 1013.0 |
| 20260830112325 | 20 | 288 | 0.0 | 0.0 | 0.00 | 0.00 | 0.00 | 45 | 1013.0 |
| 20260830111927 | 20 | 270 | 0.0 | 0.0 | 0.00 | 0.00 | 0.00 | 45 | 1013.0 |
| 20260830111122 | 20 | 230 | 0.0 | 0.0 | 0.00 | 0.00 | 0.00 | 45 | 1013.1 |
| 20260830110721 | 20 | 283 | 0.0 | 1.6 | 0.00 | 0.00 | 0.00 | 45 | 1013.0 |
| 20260830110319 | 20 | 279 | 0.0 | 0.0 | 0.00 | 0.00 | 0.00 | 45 | 1013.0 |
| 20260830105917 | 20 | 292 | 0.0 | 1.6 | 0.00 | 0.00 | 0.00 | 45 | 1013.0 |
| 20260830105516 | 20 | 292 | 0.0 | 0.0 | 0.00 | 0.00 | 0.00 | 44 | 1013.2 |
| 20260830105115 | 20 | 274 | 0.0 | 0.0 | 0.00 | 0.00 | 0.00 | 44 | 1013.1 |
| 20260830103912 | 20 | 335 | 1.6 | 1.6 | 0.00 | 0.00 | 0.00 | 44 | 1013.1 |
| 20260830103510 | 20 | 42 | 0.0 | 0.0 | 0.00 | 0.00 | 0.00 | 44 | 1013.1 |
| 20260830102707 | 20 | 137 | 0.0 | 0.0 | 0.00 | 0.00 | 0.00 | 44 | 1013.2 |
| 20260830102307 | 21 | 180 | 0.0 | 0.0 | 0.00 | 0.00 | 0.00 | 44 | 1013.1 |
| 20260830101907 | 21 | 191 | 1.6 | 1.6 | 0.00 | 0.00 | 0.00 | 44 | 1013.2 |
| 20260830101103 | 21 | 191 | 0.0 | 0.0 | 0.00 | 0.00 | 0.00 | 44 | 1013.1 |
| 20260830100701 | 21 | 279 | 0.0 | 0.0 | 0.00 | 0.00 | 0.00 | 44 | 1013.1 |
| 20260830100301 | 21 | 279 | 0.0 | 1.6 | 0.00 | 0.00 | 0.00 | 44 | 1013.2 |
| 20260830095859 | 21 | 303 | 1.6 | 1.6 | 0.00 | 0.00 | 0.00 | 43 | 1013.0 |
| 20260830095457 | 21 | 283 | 0.0 | 0.0 | 0.00 | 0.00 | 0.00 | 43 | 1013.0 |
| 20260830095056 | 21 | 274 | 0.0 | 0.0 | 0.00 | 0.00 | 0.00 | 43 | 1013.0 |
| 20260830094654 | 21 | 274 | 0.0 | 0.0 | 0.00 | 0.00 | 0.00 | 43 | 1012.9 |
| 20260830094255 | 21 | 337 | 0.0 | 0.0 | 0.00 | 0.00 | 0.00 | 43 | 1013.0 |
| 20260830093451 | 21 | 328 | 0.0 | 0.0 | 0.00 | 0.00 | 0.00 | 43 | 1012.9 |
| 20260830093050 | 21 | 333 | 0.0 | 0.0 | 0.00 | 0.00 | 0.00 | 43 | 1012.9 |
| 20260830092649 | 21 | 22 | 0.0 | 0.0 | 0.00 | 0.00 | 0.00 | 43 | 1012.9 |
| 20260830092247 | 22 | 85 | 0.0 | 1.6 | 0.00 | 0.00 | 0.00 | 43 | 1013.1 |
| 20260830091846 | 22 | 288 | 0.0 | 0.0 | 0.00 | 0.00 | 0.00 | 42 | 1013.0 |
| 20260830091044 | 22 | 184 | 0.0 | 0.0 | 0.00 | 0.00 | 0.00 | 42 | 1013.1 |
| 20260830090642 | 22 | 225 | 0.0 | 0.0 | 0.00 | 0.00 | 0.00 | 42 | 1013.0 |
| 20260830090241 | 22 | 290 | 0.0 | 0.0 | 0.00 | 0.00 | 0.00 | 42 | 1013.0 |
| 20260830084234 | 22 | 186 | 0.0 | 1.6 | 0.00 | 0.00 | 0.00 | 41 | 1012.9 |
| 20260830083431 | 22 | 38 | 0.0 | 0.0 | 0.00 | 0.00 | 0.00 | 41 | 1013.0 |
| 20260830083030 | 22 | 135 | 0.0 | 0.0 | 0.00 | 0.00 | 0.00 | 41 | 1013.0 |
| 20260830082629 | 22 | 137 | 0.0 | 1.6 | 0.00 | 0.00 | 0.00 | 41 | 1013.0 |
| 20260830082228 | 22 | 135 | 1.6 | 1.6 | 0.00 | 0.00 | 0.00 | 41 | 1013.0 |
| 20260830081827 | 22 | 135 | 3.2 | 3.2 | 0.00 | 0.00 | 0.00 | 41 | 1013.0 |
| 20260830081425 | 23 | 135 | 1.6 | 1.6 | 0.00 | 0.00 | 0.00 | 41 | 1013.0 |
| 20260830081024 | 23 | 135 | 1.6 | 3.2 | 0.00 | 0.00 | 0.00 | 41 | 1013.2 |
| 20260830075820 | 23 | 135 | 4.8 | 6.4 | 0.00 | 0.00 | 0.00 | 41 | 1013.1 |
| 20260830075420 | 23 | 186 | 0.0 | 4.8 | 0.00 | 0.00 | 0.00 | 41 | 1013.2 |
| 20260830075018 | 23 | 202 | 0.0 | 3.2 | 0.00 | 0.00 | 0.00 | 41 | 1013.2 |
| 20260830074616 | 23 | 137 | 3.2 | 6.4 | 0.00 | 0.00 | 0.00 | 41 | 1013.1 |
| 20260830074215 | 23 | 128 | 4.8 | 8.0 | 0.00 | 0.00 | 0.00 | 41 | 1013.0 |
| 20260830073814 | 23 | 137 | 6.4 | 9.7 | 0.00 | 0.00 | 0.00 | 40 | 1013.1 |
| 20260830073412 | 23 | 135 | 6.4 | 8.0 | 0.00 | 0.00 | 0.00 | 40 | 1013.1 |
| 20260830072611 | 23 | 137 | 4.8 | 6.4 | 0.00 | 0.00 | 0.00 | 40 | 1013.0 |
| 20260830072208 | 23 | 135 | 4.8 | 9.7 | 0.00 | 0.00 | 0.00 | 40 | 1013.0 |
| 20260830071807 | 23 | 135 | 6.4 | 11.3 | 0.00 | 0.00 | 0.00 | 40 | 1013.0 |
| 20260830070604 | 23 | 135 | 6.4 | 16.1 | 0.00 | 0.00 | 0.00 | 40 | 1012.9 |
| 20260830065804 | 23 | 130 | 8.0 | 14.5 | 0.00 | 0.00 | 0.00 | 39 | 1012.9 |
| 20260830065400 | 23 | 128 | 11.3 | 12.9 | 0.00 | 0.00 | 0.00 | 39 | 1012.8 |
| 20260830065359 | 23 | 128 | 11.3 | 12.9 | 0.00 | 0.00 | 0.00 | 39 | 1012.8 |
| 20260830064558 | 23 | 135 | 11.3 | 14.5 | 0.00 | 0.00 | 0.00 | 39 | 1012.7 |
| 20260830064157 | 23 | 135 | 14.5 | 14.5 | 0.00 | 0.00 | 0.15 | 39 | 1012.6 |
| 20260830063756 | 23 | 119 | 11.3 | 0.0 | 0.00 | 0.00 | 0.00 | 39 | 1012.6 |
| 20260830063353 | 23 | 139 | 11.3 | 11.3 | 0.00 | 0.00 | 0.00 | 39 | 1012.6 |
| 20260830062952 | 23 | 135 | 11.3 | 12.9 | 0.00 | 0.00 | 0.00 | 39 | 1012.6 |
| 20260830062551 | 24 | 135 | 6.4 | 11.3 | 0.00 | 0.00 | 0.00 | 38 | 1012.6 |
| 20260830062149 | 24 | 135 | 6.4 | 8.0 | 0.00 | 0.00 | 0.00 | 38 | 1012.5 |
| 20260830061748 | 24 | 135 | 4.8 | 6.4 | 0.00 | 0.00 | 0.00 | 38 | 1012.5 |
| 20260830061347 | 24 | 137 | 4.8 | 4.8 | 0.00 | 0.00 | 0.00 | 38 | 1012.5 |
| 20260830060946 | 24 | 40 | 0.0 | 3.2 | 0.00 | 0.00 | 0.00 | 38 | 1012.5 |
| 20260830060545 | 24 | 330 | 1.6 | 3.2 | 0.00 | 0.00 | 0.00 | 38 | 1012.5 |
| 20260830060143 | 24 | 137 | 3.2 | 4.8 | 0.00 | 0.00 | 0.00 | 38 | 1012.5 |
| 20260830055742 | 24 | 337 | 0.0 | 0.0 | 0.00 | 0.00 | 0.00 | 38 | 1012.5 |
| 20260830054130 | 24 | 233 | 0.0 | 1.6 | 0.00 | 0.00 | 0.00 | 37 | 1012.5 |
| 20260830053328 | 24 | 236 | 1.6 | 4.8 | 0.00 | 0.00 | 0.00 | 37 | 1012.4 |
| 20260830052928 | 24 | 162 | 1.6 | 1.6 | 0.00 | 0.00 | 0.00 | 37 | 1012.5 |
| 20260830052527 | 24 | 184 | 1.6 | 3.2 | 0.00 | 0.00 | 0.00 | 36 | 1012.5 |
| 20260830052124 | 24 | 182 | 0.0 | 6.4 | 0.00 | 0.00 | 0.00 | 36 | 1012.6 |
| 20260830051722 | 25 | 177 | 3.2 | 4.8 | 0.00 | 0.00 | 0.00 | 36 | 1012.6 |
| 20260830050921 | 25 | 96 | 1.6 | 1.6 | 0.00 | 0.00 | 0.00 | 36 | 1012.7 |
| 20260830050118 | 25 | 333 | 0.0 | 0.0 | 0.00 | 0.00 | 0.00 | 35 | 1012.7 |
| 20260830045716 | 25 | 330 | 0.0 | 0.0 | 0.00 | 0.00 | 0.00 | 35 | 1012.7 |
| 20260830045319 | 25 | 346 | 0.0 | 0.0 | 0.00 | 0.00 | 0.00 | 35 | 1012.6 |
| 20260830043710 | 25 | 301 | 0.0 | 1.6 | 0.00 | 0.00 | 0.00 | 34 | 1012.7 |
| 20260830043308 | 25 | 301 | 0.0 | 1.6 | 0.00 | 0.00 | 0.00 | 34 | 1012.6 |
| 20260830042907 | 26 | 263 | 0.0 | 0.0 | 0.00 | 0.00 | 0.00 | 34 | 1012.5 |
| 20260830042105 | 26 | 45 | 0.0 | 0.0 | 0.00 | 0.00 | 0.00 | 33 | 1012.6 |
| 20260830041704 | 26 | 81 | 0.0 | 1.6 | 0.00 | 0.00 | 0.00 | 33 | 1012.5 |
| 20260830041302 | 26 | 83 | 1.6 | 6.4 | 0.00 | 0.00 | 0.00 | 33 | 1012.5 |
| 20260830040900 | 26 | 135 | 1.6 | 3.2 | 0.00 | 0.00 | 0.00 | 33 | 1012.5 |
| 20260830040459 | 26 | 76 | 1.6 | 3.2 | 0.00 | 0.00 | 0.00 | 33 | 1012.4 |
| 20260830040059 | 26 | 114 | 1.6 | 6.4 | 0.00 | 0.00 | 0.00 | 32 | 1012.4 |
| 20260830035657 | 26 | 135 | 6.4 | 6.4 | 0.00 | 0.00 | 0.00 | 32 | 1012.4 |
| 20260830035256 | 27 | 135 | 6.4 | 6.4 | 0.00 | 0.00 | 0.00 | 32 | 1012.4 |
| 20260830034855 | 27 | 135 | 4.8 | 4.8 | 0.00 | 0.00 | 0.00 | 32 | 1012.4 |
| 20260830034453 | 27 | 135 | 6.4 | 8.0 | 0.00 | 0.00 | 0.00 | 31 | 1012.4 |
| 20260830034054 | 27 | 135 | 4.8 | 8.0 | 0.00 | 0.00 | 1.27 | 31 | 1012.3 |
| 20260830033651 | 27 | 135 | 6.4 | 9.7 | 0.00 | 0.00 | 0.00 | 31 | 1012.3 |
| 20260830032851 | 27 | 85 | 3.2 | 6.4 | 0.00 | 0.00 | 0.00 | 31 | 1012.1 |
| 20260830032447 | 27 | 78 | 6.4 | 12.9 | 0.00 | 0.00 | 0.00 | 30 | 1012.1 |
| 20260830032045 | 27 | 83 | 8.0 | 14.5 | 0.00 | 0.00 | 0.00 | 30 | 1012.0 |
| 20260830031245 | 28 | 81 | 3.2 | 4.8 | 0.00 | 0.00 | 0.00 | 30 | 1011.9 |
| 20260830030842 | 28 | 76 | 3.2 | 4.8 | 0.00 | 0.00 | 0.00 | 29 | 1011.8 |
| 20260830030441 | 28 | 92 | 3.2 | 4.8 | 0.00 | 0.00 | 0.00 | 29 | 1011.8 |
| 20260830025639 | 28 | 146 | 1.6 | 9.7 | 0.00 | 0.00 | 0.00 | 29 | 1011.7 |
| 20260830025237 | 29 | 135 | 4.8 | 4.8 | 0.00 | 0.00 | 0.00 | 28 | 1011.6 |
| 20260830024835 | 29 | 137 | 1.6 | 4.8 | 0.00 | 0.00 | 0.00 | 28 | 1011.6 |
| 20260830024434 | 29 | 135 | 3.2 | 4.8 | 0.00 | 0.00 | 0.00 | 28 | 1011.6 |
| 20260830024033 | 29 | 135 | 3.2 | 9.7 | 0.00 | 0.00 | 0.00 | 27 | 1011.6 |
| 20260830020426 | 30 | 72 | 6.4 | 6.4 | 0.00 | 0.00 | 0.00 | 24 | 1011.5 |
| 20260830020020 | 30 | 83 | 4.8 | 6.4 | 0.00 | 0.00 | 0.00 | 24 | 1011.4 |
| 20260830015622 | 31 | 87 | 8.0 | 12.9 | 0.00 | 0.00 | 0.00 | 23 | 1011.4 |
| 20260830015217 | 31 | 81 | 9.7 | 12.9 | 0.00 | 0.00 | 0.00 | 23 | 1011.4 |
| 20260830014816 | 31 | 92 | 12.9 | 12.9 | 0.00 | 0.00 | 0.00 | 22 | 1011.3 |
| 20260830014419 | 31 | 108 | 8.0 | 12.9 | 0.00 | 0.00 | 0.00 | 22 | 1011.3 |
| 20260830014013 | 32 | 83 | 9.7 | 12.9 | 0.00 | 0.00 | 0.00 | 22 | 1011.3 |
| 20260830013613 | 32 | 130 | 11.3 | 16.1 | 0.00 | 0.00 | 0.00 | 22 | 1011.3 |
| 20260830013211 | 32 | 135 | 14.5 | 14.5 | 0.00 | 0.00 | 0.00 | 21 | 1011.2 |
| 20260830012810 | 32 | 119 | 11.3 | 14.5 | 0.00 | 0.00 | 0.00 | 21 | 1011.3 |
| 20260830012408 | 33 | 135 | 14.5 | 16.1 | 0.00 | 0.00 | 0.00 | 21 | 1011.2 |
| 20260830011605 | 33 | 137 | 8.0 | 14.5 | 0.00 | 0.00 | 0.00 | 20 | 1011.2 |
| 20260830011204 | 33 | 144 | 11.3 | 14.5 | 0.00 | 0.00 | 0.00 | 20 | 1011.2 |
| 20260830010803 | 33 | 132 | 22.5 | 29.0 | 0.00 | 0.00 | 0.00 | 19 | 1011.2 |
| 20260830010404 | 34 | 120 | 20.9 | 32.2 | 0.00 | 0.00 | 0.00 | 19 | 1011.3 |